Theta_e
287 287 287 288 290 291 292 293 292 292 292 292 291 290 290 289 288 288 288 288 288 287 287 287 287 287 286 284 285 284 283 284
285 286 286 287 287 288 289 290 290 291 291 290 290 290 289 289 288 288 288 288 287 287 287 286 286 286 285 284 283 282 282 283
285 285 285 286 287 287 288 288 290 290 290 290 289 290 289 289 288 288 287 287 287 287 286 286 286 285 284 282 282 282 281 285
284 285 286 286 286 287 287 288 288 288 288 288 289 289 289 289 288 287 287 286 286 286 286 285 285 284 283 282 282 282 283 282
285 285 285 286 286 286 287 288 288 289 288 288 288 289 289 289 288 287 286 286 285 285 285 285 284 283 282 282 282 282 282 282
286 286 285 285 285 286 287 287 289 289 288 289 289 289 288 287 287 286 286 285 285 284 284 284 282 282 281 281 282 282 281 280
288 287 286 287 286 286 286 286 287 288 289 289 287 287 287 287 286 285 285 284 284 284 283 282 282 285 286 285 281 282 280 276
286 288 289 289 288 287 287 285 286 287 287 287 287 287 286 286 285 285 284 284 283 282 280 278 278 285 286 287 281 277 272 273
283 284 286 287 287 286 285 284 286 286 286 287 286 286 285 285 285 284 283 283 282 279 277 273 274 284 286 287 275 270 269 267
280 281 284 285 285 285 284 284 284 284 285 286 286 286 285 284 284 283 281 277 278 275 275 273 274 284 286 284 271 270 270 268
278 279 281 282 282 282 283 283 283 285 286 286 286 286 285 285 283 279 280 282 282 277 275 275 275 282 286 284 272 268 267 265
276 277 278 278 279 281 282 281 283 282 282 284 285 285 285 284 282 280 280 278 280 276 275 275 273 274 285 287 271 272 267 265
273 275 276 276 277 278 279 281 281 280 280 281 282 284 284 283 280 281 280 279 280 280 277 275 273 275 283 286 285 280 271 269
271 273 272 273 274 276 277 280 280 279 279 279 280 283 283 282 281 280 281 281 281 280 279 279 276 274 284 286 285 285 270 267
270 270 269 271 272 273 275 278 279 278 277 276 278 278 281 283 282 282 281 281 280 280 279 279 276 277 276 277 278 281 279 277
268 268 267 268 269 271 272 274 276 279 276 275 277 278 280 282 283 283 284 284 282 282 281 279 277 279 281 279 276 274 275 266
265 264 265 265 268 270 270 272 273 276 279 276 276 276 278 279 278 286 286 286 287 285 283 281 283 284 284 284 283 282 281 265
262 263 263 263 265 266 267 270 270 272 277 279 277 277 278 280 280 280 282 286 286 287 286 286 283 285 286 285 285 284 282 265
260 260 260 262 262 264 265 266 268 270 274 278 280 279 280 280 281 281 281 281 282 286 286 287 287 285 286 286 284 280 280 266
256 257 260 259 260 262 263 264 266 268 273 275 278 280 280 280 280 280 282 282 281 279 285 285 287 287 286 286 272 275 274 269
Wind_Speed
3 4 4 5 7 10 12 15 13 11 11 11 11 9 7 7 8 7 6 7 7 7 6 6 6 5 4 3 3 2 2 3
3 3 5 4 6 7 8 9 9 11 10 9 9 9 8 8 7 8 7 7 7 7 6 6 6 5 4 3 3 3 4 5
3 3 4 7 7 8 7 8 9 8 8 9 9 9 10 9 9 8 8 6 7 6 6 6 6 5 5 4 4 4 5 5
4 6 7 6 6 7 7 8 7 8 8 8 10 11 11 11 10 9 8 7 7 7 7 6 6 5 5 5 5 5 5 3
5 6 6 6 8 8 8 8 8 10 10 10 11 12 12 11 11 10 9 8 7 7 7 6 6 5 5 5 5 5 3 5
7 7 7 7 7 7 8 8 9 10 10 13 11 11 10 11 10 9 9 8 8 7 6 6 5 4 6 4 5 5 5 5
12 10 7 8 7 6 7 8 8 11 14 10 10 11 12 10 10 10 9 8 8 8 7 7 5 10 10 7 5 5 4 5
16 14 12 12 8 9 12 8 11 11 10 11 12 12 12 11 11 11 11 8 9 7 7 7 5 11 11 12 4 4 4 5
17 18 17 17 13 9 5 8 11 12 11 11 12 13 11 12 12 10 8 11 8 8 7 5 6 13 14 13 4 4 4 5
13 16 16 16 17 16 8 8 8 9 12 13 13 13 13 14 13 10 9 6 6 5 7 8 6 14 13 9 4 4 6 4
15 14 15 18 19 15 12 8 9 13 15 12 14 15 15 14 13 6 6 8 7 7 7 8 7 12 13 9 3 4 3 4
14 12 13 15 18 17 15 10 8 5 4 8 12 13 13 12 8 10 8 6 7 6 5 6 6 7 13 13 4 4 3 3
15 15 14 15 15 17 16 18 13 4 5 6 8 8 9 12 9 10 10 9 8 7 4 5 6 11 13 14 12 8 4 4
13 14 13 15 15 16 18 18 16 7 5 2 5 7 9 12 11 9 9 8 8 7 6 7 5 5 15 14 12 11 4 3
14 13 14 15 15 13 16 18 16 10 4 2 2 3 4 5 8 9 9 8 7 8 7 6 4 5 5 4 4 9 6 4
14 13 15 15 16 15 16 17 16 12 6 3 1 2 4 4 7 8 9 11 10 9 7 7 7 9 12 10 6 5 5 4
13 13 14 14 15 15 15 15 15 11 9 4 2 2 1 3 1 10 8 13 13 10 9 5 6 11 18 18 16 15 15 3
16 16 13 12 14 14 14 14 14 11 11 9 5 3 2 3 5 7 7 13 17 16 14 13 8 14 18 20 17 17 15 3
14 14 12 12 14 13 14 15 15 12 13 7 7 4 4 4 6 5 7 9 8 16 14 16 15 14 18 19 15 8 10 3
14 12 11 13 15 12 13 13 13 12 9 10 8 4 3 4 6 6 7 7 5 3 11 14 17 17 19 20 5 8 7 6
Wind_Direction
227 192 183 184 190 188 187 187 178 174 179 184 183 175 168 158 176 177 178 178 169 177 177 183 197 206 208 230 247 258 258 260
256 198 168 139 162 175 168 162 165 177 175 170 176 172 163 177 178 180 171 179 178 181 178 185 196 205 212 235 254 244 268 259
251 229 179 178 173 178 173 178 182 173 173 183 170 169 177 185 182 173 184 179 178 180 181 187 197 204 211 231 240 254 262 285
224 220 220 208 191 195 193 195 169 159 169 177 183 178 188 187 180 178 175 176 180 179 187 193 198 203 214 223 238 258 260 298
270 247 233 218 208 203 209 190 171 177 183 191 192 191 190 185 180 179 177 172 180 187 190 192 196 203 210 214 242 263 269 272
278 265 248 242 229 221 218 186 177 183 191 207 194 190 183 180 179 172 171 180 178 179 190 191 197 204 206 206 238 243 272 266
321 310 266 251 258 255 239 214 174 191 207 195 181 181 188 181 174 170 177 179 176 186 186 190 204 212 214 211 219 226 256 273
349 324 302 292 247 221 226 186 190 206 205 190 186 187 187 175 172 180 185 173 185 185 179 199 201 209 216 225 214 200 238 247
344 336 330 320 307 280 233 196 199 200 199 195 186 188 177 172 182 179 171 183 183 184 188 184 216 213 215 224 205 208 236 233
335 328 328 336 330 316 276 219 199 203 210 200 188 182 177 184 181 178 167 168 172 173 185 197 220 213 215 214 184 219 250 241
340 337 348 346 338 323 306 267 231 221 219 196 186 185 186 184 177 155 166 180 172 191 200 198 214 214 213 210 172 211 246 273
347 349 349 346 343 343 333 304 289 273 188 184 187 189 180 168 162 159 164 144 173 189 192 207 211 223 218 217 185 199 217 232
346 342 345 350 350 349 344 330 312 253 184 183 178 175 163 161 152 157 157 165 180 189 212 219 218 221 224 218 219 201 182 228
343 333 340 349 348 345 336 334 325 310 292 211 163 167 164 161 161 159 168 177 186 193 211 222 206 215 218 219 222 216 200 205
331 337 337 341 339 334 332 332 332 330 319 322 157 134 162 168 168 168 174 180 186 194 209 212 187 203 205 206 209 222 215 208
326 332 332 336 328 330 336 335 329 340 325 310 305 193 165 191 187 194 197 190 189 202 190 179 203 216 200 188 189 187 185 116
329 326 324 328 322 327 333 332 320 340 341 296 250 211 180 185 233 225 211 197 198 175 180 192 206 194 198 199 202 193 174 96
319 316 315 314 316 321 321 322 316 341 326 320 257 180 178 210 214 219 231 215 212 207 206 209 199 214 196 191 193 190 179 173
305 307 312 317 311 319 323 319 327 317 296 303 286 223 179 220 230 219 214 212 214 218 213 218 214 212 190 184 182 187 195 177
296 297 312 310 304 316 309 315 310 305 320 322 304 280 218 214 235 227 228 230 210 141 210 206 208 205 205 192 164 189 202 197